Flag for Canada Past Weather in Happy Valley-Goose Bay, Newfoundland and Labrador, Canada — Yesterday and Last 2 Weeks

Now
55 °F

Broken clouds.


Feels Like: 54 °F
Forecast: 43 / 61 °F
Wind: 6 mph from Northeast

Location: Goose

Current Time: Jun 29, 2016 at 1:23:55 PM

Latest Report: Jun 29, 2016 at 1:00 PM


Visibility: 15 mi

Pressure: 30.20 "Hg

Humidity: 55%

Dew Point: 39 °F

Location of Happy Valley-Goose BayLocation

Past Weather in Happy Valley-Goose Bay — Graph

°F

Happy Valley-Goose Bay Temperature Yesterday

Maximum temperature yesterday: 72 °F (at 12:00 AM)
Minimum temperature yesterday: 45 °F (at 8:00 PM)
Average temperature yesterday: 52 °F

High & Low Weather Summary for the Past Weeks

 TemperatureHumidityPressure
High82 °F (Jun 21, 1:00 PM)88% (Jun 24, 2:00 AM)30.22 "Hg (Jun 24, 2:00 AM)
Low37 °F (Jun 15, 7:52 AM)21% (Jun 19, 6:00 PM)29.26 "Hg (Jun 21, 2:00 PM)
Average58 °F58%29.78 "Hg
* Reported Jun 14 12:00 PM — Jun 29 12:00 PM, Happy Valley-Goose Bay, Weather by CustomWeather, © 2016

Note: Actual official high and low records may vary slightly from our data, if they occured in-between our weather recording intervals... More about our weather records

Advertising

Happy Valley-Goose Bay Weather History for the Previous 24 Hours

Scroll right to see more
 ConditionsComfort  
Time TempWeatherWind HumidityBarometerVisibility
12:00 PM
Wed, Jun 29
54 °FBroken clouds.5 mph63%30.22 "Hg15 mi
11:00 AM52 °FBroken clouds.7 mph67%30.21 "Hg15 mi
10:00 AM48 °FPartly sunny.5 mph71%30.22 "Hg15 mi
9:00 AM46 °FMostly cloudy.6 mph76%30.22 "Hg15 mi
8:00 AM46 °FPartly sunny.8 mph76%30.22 "Hg15 mi
7:00 AM45 °FMostly cloudy.8 mph76%30.19 "Hg15 mi
6:00 AM45 °FPartly sunny.5 mph76%30.17 "Hg15 mi
5:00 AM45 °FPassing clouds.6 mph76%30.16 "Hg15 mi
4:00 AM45 °FPassing clouds.5 mph76%30.15 "Hg15 mi
3:00 AM45 °FSprinkles. Passing clouds.6 mph76%30.14 "Hg15 mi
2:00 AM45 °FPassing clouds.5 mph76%30.13 "Hg15 mi
1:00 AM45 °FPassing clouds.7 mph81%30.11 "Hg15 mi
12:00 AM45 °FPassing clouds.6 mph81%30.11 "Hg15 mi
11:00 PM
Tue, Jun 28
45 °FMostly cloudy.7 mph81%30.09 "Hg15 mi
10:00 PM45 °FLight rain. Mostly cloudy.7 mph81%30.08 "Hg15 mi
9:00 PM45 °FLight rain. Mostly cloudy.9 mph81%30.06 "Hg10 mi
8:00 PM45 °FLight rain. Fog.8 mph81%30.03 "Hg6 mi
7:00 PM46 °FLight rain. Mostly cloudy.15 mph82%30.01 "Hg8 mi
6:00 PM46 °FDrizzle. Fog.14 mph82%29.96 "Hg2 mi
5:54 PM46 °FDrizzle. Fog.16 mph82%29.95 "Hg2 mi
5:00 PM46 °FLight rain. Fog.18 mph82%29.93 "Hg2 mi
4:00 PM48 °FLight rain. Mostly cloudy.14 mph76%29.90 "Hg10 mi
3:00 PM50 °FLight rain. Mostly cloudy.12 mph76%29.88 "Hg15 mi
2:00 PM48 °FLight rain. Mostly cloudy.16 mph82%29.85 "Hg12 mi
1:00 PM48 °FRain. Fog.14 mph76%29.83 "Hg5 mi
Weather by CustomWeather, © 2016

See weather overviewHow to use our weather pages